Welcome to the New NWS' Forecast!
Most changes are behind the scenes, but click here for differences you might notice.

Regional Weather Roundup (RWR)

Issued by National Weather Service (NWS)

                            
000
ASUS43 KDTX 201301
RWRMI 
MICHIGAN HOURLY REGIONAL WEATHER ROUNDUP
NATIONAL WEATHER SERVICE DETROIT/PONTIAC MI
900 AM EDT MON AUG 20 2018

NOTE: "FAIR" INDICATES FEW OR NO CLOUDS BELOW 12,000 FEET WITH NO
SIGNIFICANT WEATHER AND/OR OBSTRUCTION TO VISIBILITY.

MIZ047>049-052>055-059>063-066>070-074>076-081>083-201400-
SOUTHEAST LOWER MICHIGAN
  
CITY           SKY/WX    TMP DP  RH WIND       PRES   REMARKS
ADRIAN         FAIR      67  63  87 SE6       30.05R                  
ALMA           FAIR      69  66  92 E6        30.05S                  
ANN ARBOR      FAIR      70  65  84 VRB6      30.05R                  
BAD AXE        FAIR      66  64  96 CALM      30.08R                  
CARO           FAIR      66  63  90 E3        30.07S                  
DETROIT CITY   FAIR      71  66  84 NE3       30.06S                  
DETROIT        CLOUDY    72  63  73 E8        30.05S                  
FLINT          PTSUNNY   68  64  87 SE3       30.06R                  
GROSSE ILE     FAIR      71  65  83 E5        30.04S                  
HILLSDALE      FAIR      64  61  88 CALM      30.04R                  
HOWELL         FAIR      69  65  86 E3        30.06R                  

CITY           SKY/WX    TMP DP  RH WIND       PRES   REMARKS
JACKSON        FAIR      68  64  87 E7        30.05R                  
LAMBERTVILLE   FAIR      71  65  82 CALM      30.04R                  
LANSING        FAIR      69  64  84 E7        30.05R                  
LAPEER         FAIR      67  65  94 E3        30.07F                  
MASON          FAIR      68  64  87 CALM      30.05S                  
MONROE         FAIR      71  69  93 CALM      30.04S                  
PONTIAC        CLOUDY    70  66  87 E10       30.05S                  
PORT HOPE        N/A     69  64  84 CALM      30.07R                  
PORT HURON     FAIR      66  64  94 CALM      30.08R                  
TRI CITIES     CLOUDY    69  66  90 CALM      30.07R                  
MIDLAND        FAIR      69  65  84 E3        30.05S                  
TROY           FAIR      70  64  81 NE3       30.09R                  
SAGINAW HB     PTSUNNY   68  63  83 CALM      30.06R                  
$$
MIZ043>046-050>051-056>058-064>065-071>073-077>080-201400-
SOUTHWEST LOWER MICHIGAN
  
CITY           SKY/WX    TMP DP  RH WIND       PRES   REMARKS
BATTLE CREEK   FAIR      68  62  81 SE8       30.04R                  
BENTON HARBOR  FAIR      70  64  81 E9        29.97R                  
BIG RAPIDS     FAIR      66  63  89 W6        30.04S                  
HOLLAND        FAIR      68  64  87 E9        29.99F                  
GRAND RAPIDS   CLOUDY    68  64  87 SE7       30.03R                  
IONIA          FAIR      67  64  91 E7        30.03S                  
KALAMAZOO      FAIR      69  63  81 VRB6      30.01F                  
LUDINGTON      FAIR      63  62  96 E3        30.01R                  
MARSHALL       FAIR      65  64  94 CALM      30.04R                  
MOUNT PLEASANT PTSUNNY   69  65  87 SE5       30.04S                  
MUSKEGON       CLOUDY    69  63  81 E9        30.00S                  
SOUTH HAVEN    FAIR      69  65  85 SE7       29.98S                  
$$
MIZ016>042-201400-
NORTHERN LOWER MICHIGAN
  
CITY           SKY/WX    TMP DP  RH WIND       PRES   REMARKS
ALPENA         FAIR      72  66  81 S5        30.07R                  
BEAVER ISLAND  FAIR      69  67  94 SE5       30.01F                  
BELLAIRE       FAIR      70  65  84 CALM      30.03R                  
CADILLAC       PTSUNNY   66  64  91 CALM      30.05R                  
CHARLEVOIX     FAIR      68  68 100 CALM      30.05S                  
GAYLORD        FAIR      67  64  90 CALM      30.06S                  
HARBOR SPRINGS FAIR      68  67  96 E5        30.03S                  
HOUGHTON LAKE  FAIR      69  64  84 SE6       30.06S                  
MANISTEE       FAIR      63  62  97 E5        30.01S FOG              
OSCODA         FAIR      70  67  91 CALM      30.07R                  
PELLSTON       FAIR      68  65  90 SE5       30.04S                  
ROGERS CITY    CLOUDY    71  65  79 S7        30.07R                  
TRAVERSE CITY  CLOUDY    70  66  87 VRB3      30.01S                  
$$
MIZ007>008-015-201400-
EASTERN UPPER MICHIGAN
  
CITY           SKY/WX    TMP DP  RH WIND       PRES   REMARKS
KINROSS        PTSUNNY   69  68  96 SE10      30.05R                  
MACKINAC ISLAN FAIR      69  65  89 SE6       30.03F                  
NEWBERRY       FOG       63  62  97 CALM      30.02S VSB 1            
S. S. MARIE    CLOUDY    69  67  93 E6        30.04S                  
$$
MIZ004>006-011>014-085-201400-
CENTRAL UPPER MICHIGAN
  
CITY           SKY/WX    TMP DP  RH WIND       PRES   REMARKS
MANISTIQUE     FOG       64  63  94 NE3       29.99F VSB 1/2          
ESCANABA       FAIR      64  63  96 N3        30.00F FOG              
MENOMINEE      FAIR      67  66  97 CALM      30.00R FOG              
SAWYER-GWINN   CLOUDY    61  59  94 CALM      30.03R                  
$$
MIZ001>003-009>011-084-201400-
WESTERN UPPER MICHIGAN
  
CITY           SKY/WX    TMP DP  RH WIND       PRES   REMARKS
IRON MOUNTAIN  FOG       63  63 100 CALM      30.01R VSB 1/4          
HOUGHTON       FAIR      64  61  90 CALM      30.00S                  
IRONWOOD       FAIR      65  62  90 CALM      30.02R                  
$$

ABBREVIATIONS USED IN REMARKS
   TC - TEMPERATURE IN CELSIUS
  WCI - WIND CHILL INDEX
   HX - HEAT INDEX
  VSB - VISIBILITY